Theta_e
319 327 333 334 334 334 331 332 335 336 331 316 310 310 316 321 312 311 312 312 312 312 313 313 313 313 314 315 316 318 320 320 322 324 326 327 323 323 324 323 323 326 325
321 333 332 335 332 333 335 335 332 325 315 311 311 312 319 318 316 313 313 315 320 321 319 317 316 316 316 316 318 320 321 321 322 322 325 325 328 326 324 322 323 323 324
322 332 330 332 328 327 325 322 317 312 311 312 312 316 324 328 320 315 315 320 321 319 323 319 317 317 317 318 320 321 321 321 321 321 320 322 326 326 323 324 323 323 326
327 333 330 330 328 326 319 314 311 313 325 321 320 327 328 327 319 315 316 317 319 320 321 324 316 317 317 321 322 322 322 323 322 320 320 319 321 326 323 324 324 324 326
334 333 329 329 327 320 314 311 311 311 324 327 328 329 329 321 318 316 316 316 316 317 325 321 316 317 318 322 322 322 322 322 322 322 323 323 323 326 325 324 325 325 326
334 331 329 328 323 317 312 311 310 310 312 321 328 328 321 316 316 317 316 316 315 315 316 316 318 320 319 322 322 323 323 322 323 322 322 323 324 323 323 324 325 325 324
333 330 328 322 319 315 313 311 310 311 312 316 317 317 316 317 317 315 314 314 315 315 316 317 320 321 322 323 323 322 322 322 321 320 321 322 323 323 323 324 325 324 322
332 328 319 321 320 316 314 312 312 314 316 316 316 317 317 317 315 314 314 316 317 318 318 320 322 322 322 322 323 322 322 321 320 319 319 320 323 322 323 324 323 322 320
328 328 319 325 319 319 315 313 314 316 317 317 317 317 316 315 314 315 316 317 318 319 320 322 322 322 323 323 323 323 321 321 320 318 318 318 320 322 322 322 321 319 318
321 319 325 327 320 318 316 315 315 317 318 317 316 314 314 315 315 314 316 317 319 318 319 320 321 323 324 324 323 325 321 320 319 319 319 320 321 320 321 321 321 319 318
332 326 330 328 320 317 317 320 321 319 318 317 314 313 315 315 316 319 320 320 320 321 321 320 320 322 322 325 323 322 319 318 318 318 318 319 319 320 320 320 319 318 317
332 332 331 328 319 316 316 320 320 319 318 316 314 316 316 319 322 321 322 323 322 321 320 321 319 319 320 321 321 321 320 319 318 318 317 316 319 319 319 318 318 317 316
330 331 331 326 316 316 317 318 318 318 317 315 316 319 318 323 325 324 323 322 321 320 319 319 318 319 319 319 319 321 319 318 317 316 315 314 313 315 316 317 316 315 314
330 328 329 325 315 318 318 318 318 317 316 315 318 320 319 322 325 324 324 323 323 321 319 319 318 316 318 318 318 317 318 317 315 314 313 312 311 314 314 314 313 312 311
330 329 326 321 316 320 320 318 318 317 315 314 319 319 321 324 324 324 324 322 319 315 318 319 320 317 317 319 317 317 316 315 314 313 312 310 309 305 308 310 313 311 310
329 325 326 321 322 323 322 319 318 316 314 316 319 320 323 324 326 326 320 319 314 311 312 315 317 317 314 316 316 315 315 314 312 308 308 307 303 301 300 300 303 306 308
330 327 326 323 326 327 324 319 317 315 314 316 318 319 322 323 324 322 320 318 311 311 312 315 315 314 314 315 315 314 313 311 309 307 306 304 301 299 298 297 297 298 303
329 328 328 327 324 326 324 320 316 316 315 316 317 319 321 322 320 319 321 315 311 311 313 315 312 311 312 312 312 312 311 308 308 306 304 302 300 298 297 296 296 296 297
326 326 327 327 322 325 326 321 318 318 317 318 318 319 320 321 321 322 321 314 312 312 313 313 310 310 309 309 310 309 308 307 306 304 302 300 298 297 296 296 296 296 295
326 324 324 326 323 324 324 322 321 321 320 320 319 320 320 320 321 323 322 316 312 312 312 312 310 311 309 310 309 308 307 306 305 301 301 299 298 297 296 296 296 295 295
326 326 324 325 323 324 324 323 323 320 319 322 321 320 320 321 322 324 323 318 313 312 311 310 311 309 308 308 306 306 305 304 304 302 300 300 299 297 296 296 295 295 295
327 327 326 325 323 324 324 322 322 317 318 321 320 319 320 321 324 325 324 319 314 312 311 309 309 307 308 308 307 308 307 306 306 306 302 302 300 298 296 295 295 295 295
327 328 326 325 324 324 325 324 324 321 322 325 319 317 318 322 324 326 324 322 316 313 311 308 307 306 305 306 307 310 309 308 306 306 303 301 299 298 296 295 295 295 295
329 328 328 326 326 325 324 325 324 320 318 316 316 315 318 322 324 326 326 324 317 314 311 308 306 305 305 305 306 308 310 308 307 300 300 299 298 297 295 295 295 295 294
329 329 328 327 326 326 325 325 324 323 320 316 317 318 318 321 323 325 326 324 318 314 311 308 305 304 303 304 304 303 306 305 301 299 298 297 297 296 295 295 295 295 295
329 329 328 328 327 327 326 325 324 324 321 320 320 318 318 320 323 326 327 324 323 316 312 308 304 303 302 302 303 301 300 299 298 297 297 296 296 295 295 295 295 295 294
Wind_Speed
19 19 19 19 20 20 19 20 20 16 10 9 10 14 17 20 20 19 19 18 18 17 17 17 16 15 15 15 15 15 15 15 15 15 16 16 13 13 14 13 14 14 13
23 22 21 22 22 22 21 18 15 11 9 11 14 16 19 19 20 18 17 17 16 16 16 15 14 14 15 15 15 14 16 14 14 13 12 13 14 12 13 13 13 12 11
25 24 22 21 18 17 16 13 11 9 11 15 17 21 21 20 15 15 15 15 14 14 13 13 15 14 14 15 15 14 13 13 11 10 8 8 12 11 12 12 13 14 14
27 25 22 21 17 15 13 12 12 13 15 17 19 20 19 15 12 12 12 12 13 13 13 12 14 14 14 15 15 13 14 12 12 12 11 8 8 11 10 10 12 13 13
28 25 24 21 18 15 13 13 16 18 19 19 16 18 14 11 10 10 10 10 11 11 12 10 13 13 14 15 14 14 14 12 9 12 14 11 10 9 9 11 11 12 10
28 26 23 20 17 14 14 16 17 18 19 20 20 16 12 10 10 9 9 10 11 11 11 13 14 15 14 13 13 12 10 8 7 10 13 15 15 14 12 12 13 12 9
29 26 23 19 16 15 16 17 18 19 19 18 16 13 11 10 9 9 10 10 11 13 13 13 14 13 13 13 11 10 6 7 11 12 15 17 16 14 13 14 15 11 9
30 26 22 19 16 17 18 18 18 18 17 16 14 12 10 9 10 11 12 12 12 12 12 11 11 11 10 10 11 9 9 8 9 12 15 17 16 15 14 13 11 10 12
28 25 23 21 18 17 18 18 18 17 16 14 13 11 10 11 11 12 12 12 12 11 10 9 8 10 8 8 9 7 7 8 10 11 15 16 13 13 12 12 10 13 15
25 25 24 21 19 20 19 19 17 16 14 13 12 11 12 13 11 11 12 11 11 11 10 8 8 6 7 6 6 5 6 8 8 9 17 17 15 13 11 10 11 13 12
24 25 25 22 20 20 19 17 17 15 14 13 12 13 15 13 12 12 12 12 11 11 7 7 7 4 4 7 6 4 1 4 4 5 9 13 16 15 13 11 11 10 12
30 29 26 24 22 22 21 18 17 15 14 13 12 14 15 14 14 12 10 10 10 8 4 3 4 2 1 4 3 3 3 3 1 2 4 10 13 13 12 11 10 10 10
32 30 28 26 24 23 22 19 18 16 15 15 14 15 14 13 11 7 7 7 6 7 3 2 2 2 2 4 4 5 3 2 3 3 6 9 10 12 9 10 10 9 7
34 31 30 27 26 25 22 20 18 17 17 16 16 15 14 11 9 6 4 3 3 4 6 6 5 1 1 4 5 2 4 4 5 5 7 7 11 14 13 14 7 8 8
36 33 31 28 28 26 23 21 20 18 17 17 17 16 12 12 10 8 4 3 3 5 8 8 7 3 2 7 7 4 5 5 4 5 5 5 6 7 10 11 12 10 9
35 32 31 29 27 26 24 22 20 19 17 18 18 17 15 11 8 9 5 3 3 2 4 5 5 5 4 7 7 6 5 4 3 4 5 5 6 6 7 7 8 9 10
35 31 32 29 28 26 24 22 21 19 19 19 20 18 15 12 12 8 5 2 3 3 5 5 5 7 7 7 7 6 5 4 3 3 4 5 6 7 8 9 9 9 9
34 36 32 29 30 28 26 23 20 20 21 21 21 19 16 13 10 5 4 4 3 4 6 5 5 8 8 7 7 6 4 3 3 4 3 4 6 9 10 10 10 9 7
35 38 35 33 33 30 25 24 21 20 22 23 21 19 17 15 11 7 6 6 5 6 6 5 6 5 6 8 7 6 5 3 2 2 2 4 6 9 10 10 10 8 8
35 37 37 35 34 32 28 25 22 22 25 24 22 20 18 16 12 10 9 8 8 8 8 7 5 7 5 6 8 7 6 4 3 1 1 4 7 9 10 10 9 9 9
37 36 38 37 37 36 33 31 29 29 30 27 25 23 20 17 14 13 11 10 10 10 8 9 9 9 9 9 7 7 7 5 5 1 1 3 7 8 9 9 10 10 10
43 39 39 38 39 39 36 34 32 31 31 29 27 25 22 19 17 15 13 12 12 12 12 13 12 12 12 12 8 7 6 6 7 5 4 4 5 7 9 9 11 11 11
47 44 42 41 41 41 39 36 34 31 31 33 31 28 25 22 19 16 14 14 13 13 13 13 13 12 12 14 13 7 5 4 7 8 6 5 6 7 8 9 11 12 11
49 46 42 42 42 43 42 40 39 39 39 38 32 27 26 24 22 19 18 16 15 15 15 14 14 13 14 14 16 16 11 6 6 4 7 7 6 7 9 10 11 12 12
49 50 45 43 43 44 44 43 42 41 39 35 31 29 28 27 25 23 19 19 18 16 16 16 16 16 15 15 17 16 16 13 11 9 7 6 6 7 8 9 11 11 12
51 51 48 46 45 46 46 46 45 44 41 37 34 32 32 30 27 25 24 22 19 17 18 16 17 17 17 16 16 16 14 13 12 11 9 7 6 6 8 7 9 10 12
Wind_Direction
161 154 146 136 138 139 139 136 139 140 124 105 99 99 104 106 99 91 90 89 88 86 85 85 85 86 87 89 90 83 75 72 73 71 70 57 50 52 52 53 53 46 44
157 153 153 139 135 135 136 138 141 135 125 115 113 109 104 103 93 88 89 87 86 85 83 80 84 84 87 90 93 86 76 63 66 61 58 56 51 54 49 48 49 50 42
161 159 159 154 144 142 142 145 142 131 121 118 112 105 101 98 93 88 90 94 91 83 84 77 76 84 92 96 93 83 76 75 68 52 42 62 52 53 48 45 45 50 58
162 164 159 156 153 150 150 149 141 133 121 115 108 105 102 110 97 91 89 91 93 91 82 77 77 90 99 102 94 82 67 67 50 48 51 60 48 49 46 44 48 63 75
163 161 159 159 159 155 153 148 145 141 136 124 115 111 132 117 103 94 89 85 92 90 93 92 88 95 104 108 96 83 83 72 51 48 48 58 48 43 39 51 63 84 80
163 162 160 162 163 158 152 147 143 142 141 133 135 141 131 117 107 98 91 85 85 92 96 94 94 99 110 111 104 89 80 70 52 54 53 57 56 59 63 74 87 90 72
165 165 165 167 165 156 149 144 143 142 140 139 136 135 128 121 110 99 97 98 94 93 95 97 101 106 112 112 107 93 84 75 49 61 59 56 55 62 70 87 94 82 59
168 166 166 165 165 157 150 147 146 141 137 135 133 132 130 119 110 107 104 99 95 94 94 97 103 104 103 103 102 86 70 61 46 49 57 53 58 68 79 86 85 65 48
176 171 168 167 167 160 156 153 149 145 139 137 136 135 128 119 113 109 103 98 96 93 88 88 94 92 98 116 98 112 93 49 28 47 58 56 58 72 81 84 61 50 53
177 179 173 172 171 167 162 159 154 149 145 141 142 137 130 122 113 105 98 96 93 89 80 79 75 107 96 103 108 114 92 34 25 47 67 65 66 71 77 78 68 68 48
183 182 181 179 177 173 170 163 157 153 152 152 149 143 134 121 112 106 95 98 100 87 73 74 71 100 120 153 133 107 61 54 54 39 76 74 72 75 79 79 70 58 51
185 191 188 185 183 178 174 168 164 162 163 160 157 148 137 122 108 100 98 94 103 97 78 85 61 22 97 131 174 183 155 99 48 27 79 92 84 69 76 76 69 65 48
187 186 190 188 186 183 180 175 172 171 172 169 160 150 137 129 120 122 112 123 130 122 144 110 96 121 80 166 203 171 123 57 67 49 82 89 84 88 87 77 61 56 45
188 188 190 188 188 186 184 183 180 180 179 175 165 160 152 147 143 161 157 171 204 194 185 196 219 155 296 175 157 184 121 84 64 66 74 67 89 84 74 68 68 51 41
193 192 188 188 190 190 188 187 188 187 185 178 172 166 160 162 159 175 195 197 232 251 232 219 234 260 278 144 151 147 123 100 79 65 43 56 65 66 72 66 70 64 51
199 199 189 190 190 189 190 192 192 192 187 182 177 174 175 176 188 206 192 197 257 240 208 207 214 221 171 147 135 120 110 103 81 66 85 67 52 48 39 36 37 56 53
202 199 193 191 193 194 192 192 196 193 190 185 183 183 186 187 195 196 183 221 248 217 204 208 204 190 159 145 136 125 119 111 99 90 72 42 38 30 24 16 14 18 41
205 204 198 196 199 194 198 197 195 193 190 187 188 193 197 205 220 195 200 216 229 197 202 218 208 156 153 146 135 133 117 94 101 95 55 33 24 19 14 13 9 6 8
206 204 201 202 203 201 200 204 199 196 196 196 196 199 205 216 224 216 218 221 221 208 206 216 185 168 180 138 140 139 141 142 128 43 39 24 14 11 11 10 7 356 349
207 207 206 205 206 205 202 203 202 203 203 204 205 207 211 220 226 227 227 225 221 214 211 209 214 193 204 156 162 164 163 173 167 8 20 9 4 5 6 6 0 351 345
210 207 208 207 206 205 202 201 202 204 205 209 212 215 216 221 225 228 227 225 224 221 222 213 206 212 200 189 189 177 180 184 199 267 292 344 355 353 360 359 352 349 345
209 212 211 211 208 207 207 207 208 207 208 214 216 214 215 220 223 225 225 223 223 223 219 221 218 216 210 201 202 192 199 216 226 234 253 307 329 339 349 348 349 349 347
210 214 213 213 212 210 210 210 211 209 213 217 221 215 216 219 223 226 228 230 230 228 230 227 225 224 228 215 212 218 197 218 216 245 250 282 298 320 335 344 347 348 347
213 215 217 216 214 213 214 213 215 212 213 221 223 221 218 221 224 228 230 230 230 232 232 232 229 226 228 231 224 222 230 240 220 233 249 261 280 306 328 336 345 349 348
213 215 217 218 217 217 217 219 220 220 223 227 226 226 224 225 227 232 237 237 231 230 232 234 234 233 235 237 234 230 230 240 246 251 265 265 278 302 315 328 338 342 345
214 217 218 218 220 220 219 221 223 225 227 227 227 228 228 229 229 233 234 234 239 231 235 234 233 235 238 236 234 230 233 235 240 239 249 258 269 291 306 320 323 339 339